Date String (YYYY-MM-DD hh:mm:ss) UTC,Instrument flags,absolute air pressure of the measurement (hPa),sample flow rate (lpm),inlet stack bypass flow (lpm),air temperature of the measurement (°C),ambient temperature measured by the external sensor (°C),aerosol sample conditioner tube jacket temperature (°C),OPC LED temperature (°C),internal box temperature (°C),relative humidity of the measurement (%),span deviation,mass concentration of particles derived from Lorenz-Mie calculation of OPC scattering (μg/m³),mass concentration of particles derived from Lorenz-Mie calculation of OPC scattering (μg/m³),mass concentration of particles derived from Lorenz-Mie calculation of OPC scattering (μg/m³)
DateTimeUTC,F1_M11,P_M11,Q1_M11,Q2_M11,T1_M11,T2_M11,T3_M11,T4_M11,T5_M11,U1_M11,ZSPAN_M11,X0_M11,X2_M11,X1_M11
2023-09-18 03:00:00,SystemResetWarning,0832.0,4.99,000.00,027.8,026.2,000.0,036.2,029.5,18.2,0000.0,0005.38,0003.58,0003.27
2023-09-18 03:01:00,SystemResetWarning,0832.0,4.99,000.00,027.9,026.4,000.0,036.2,029.5,18.1,0000.0,0005.21,0003.54,0003.27
2023-09-18 03:02:00,SystemResetWarning,0832.0,4.99,000.00,027.9,026.5,000.0,036.2,029.6,17.9,0000.0,0005.31,0003.55,0003.27
2023-09-18 03:03:00,SystemResetWarning,0832.0,5.00,000.00,027.9,026.7,000.0,036.2,029.6,17.9,0000.0,0005.53,0003.60,0003.27
2023-09-18 03:04:00,SystemResetWarning,0832.0,5.00,000.00,028.0,026.8,000.0,036.3,029.6,17.9,0000.0,0005.61,0003.61,0003.27
2023-09-18 03:05:00,SystemResetWarning,0832.0,5.00,000.00,028.0,026.8,000.0,036.3,029.7,18.1,0000.0,0005.72,0003.62,0003.27
2023-09-18 03:06:00,SystemResetWarning,0832.1,5.01,000.00,028.0,026.9,000.0,036.3,029.7,18.2,0000.0,0005.48,0003.60,0003.26
2023-09-18 03:07:00,SystemResetWarning,0832.0,5.01,000.00,028.1,027.0,000.0,036.3,029.8,17.9,0000.0,0005.38,0003.57,0003.26
2023-09-18 03:08:00,SystemResetWarning,0832.0,5.00,000.00,028.1,027.1,000.0,036.3,029.8,17.7,0000.0,0005.38,0003.57,0003.26
2023-09-18 03:09:00,SystemResetWarning,0832.1,4.99,000.00,028.2,027.1,000.0,036.4,029.9,17.7,0000.0,0005.76,0003.56,0003.26
2023-09-18 03:10:00,SystemResetWarning,0832.1,4.99,000.00,028.2,027.0,000.0,036.4,029.9,17.8,0000.0,0006.07,0003.57,0003.26
2023-09-18 03:11:00,SystemResetWarning,0832.0,5.01,000.00,028.1,025.6,000.0,036.3,029.5,17.7,0000.0,0006.27,0003.61,0003.27
2023-09-18 03:12:00,SystemResetWarning,0832.0,5.00,000.00,028.0,024.5,000.0,036.3,029.3,17.8,0000.0,0006.30,0003.61,0003.26
2023-09-18 03:13:00,SystemResetWarning,0832.0,5.01,000.00,027.9,024.5,000.0,036.3,029.2,17.8,0000.0,0006.28,0003.60,0003.26
2023-09-18 03:14:00,SystemResetWarning,0832.0,5.02,000.00,027.9,024.7,000.0,036.3,029.2,17.9,0000.0,0007.02,0003.57,0003.25
2023-09-18 03:15:00,SystemResetWarning,0832.0,4.99,000.00,027.8,025.0,000.0,036.3,029.2,18.0,0000.0,0007.41,0003.55,0003.25
2023-09-18 03:16:00,SystemResetWarning,0832.0,4.99,000.00,027.8,025.3,000.0,036.3,029.3,18.0,0000.0,0007.38,0003.55,0003.24
2023-09-18 03:17:00,SystemResetWarning,0831.9,5.00,000.00,027.8,025.6,000.0,036.3,029.3,18.0,0000.0,0007.34,0003.54,0003.24
2023-09-18 03:18:00,SystemResetWarning,0832.0,5.00,000.00,027.8,025.9,000.0,036.3,029.4,17.8,0000.0,0007.28,0003.54,0003.24
2023-09-18 03:19:00,SystemResetWarning,0831.9,5.01,000.00,027.9,026.1,000.0,036.3,029.5,17.8,0000.0,0007.80,0003.56,0003.26
2023-09-18 03:20:00,SystemResetWarning,0832.0,5.00,000.00,027.9,026.3,000.0,036.3,029.5,17.8,0000.0,0007.78,0003.59,0003.25
2023-09-18 03:21:00,SystemResetWarning,0831.9,5.00,000.00,027.9,026.5,000.0,036.3,029.5,17.7,0000.0,0007.59,0003.61,0003.26
2023-09-18 03:22:00,SystemResetWarning,0831.9,5.00,000.00,027.9,026.6,000.0,036.3,029.6,17.7,0000.0,0007.54,0003.61,0003.25
2023-09-18 03:23:00,SystemResetWarning,0832.0,5.00,000.00,028.0,026.7,000.0,036.3,029.7,17.7,0000.0,0007.53,0003.60,0003.25
2023-09-18 03:24:00,SystemResetWarning,0831.9,5.00,000.00,028.0,026.8,000.0,036.3,029.7,17.7,0000.0,0007.53,0003.59,0003.25
2023-09-18 03:25:00,SystemResetWarning,0831.9,5.00,000.00,028.0,026.9,000.0,036.3,029.7,17.8,0000.0,0006.88,0003.60,0003.24
2023-09-18 03:26:00,SystemResetWarning,0832.0,5.00,000.00,028.1,027.0,000.0,036.3,029.8,17.9,0000.0,0006.65,0003.63,0003.24
2023-09-18 03:27:00,SystemResetWarning,0831.9,4.99,000.00,028.1,027.0,000.0,036.4,029.8,17.8,0000.0,0006.64,0003.64,0003.25
2023-09-18 03:28:00,SystemResetWarning,0831.9,4.99,000.00,028.2,027.1,000.0,036.4,029.9,17.8,0000.0,0006.76,0003.65,0003.24
2023-09-18 03:29:00,SystemResetWarning,0831.9,5.01,000.00,028.2,027.1,000.0,036.4,029.9,17.8,0000.0,0006.74,0003.63,0003.23
2023-09-18 03:30:00,SystemResetWarning,0831.9,5.00,000.00,028.2,027.2,000.0,036.4,029.9,17.8,0000.0,0006.06,0003.62,0003.21
2023-09-18 03:31:00,SystemResetWarning,0831.8,4.97,000.00,028.2,026.1,000.0,036.4,029.7,17.7,0000.0,0005.71,0003.61,0003.20
2023-09-18 03:32:00,SystemResetWarning,0832.2,5.03,000.00,028.1,024.6,000.0,036.3,029.3,17.8,0000.0,0005.73,0003.59,0003.19
2023-09-18 03:33:00,SystemResetWarning,0832.2,5.00,000.00,028.0,024.4,000.0,036.3,029.2,17.9,0000.0,0005.71,0003.56,0003.18
2023-09-18 03:34:00,SystemResetWarning,0832.1,4.99,000.00,027.9,024.6,000.0,036.3,029.2,18.1,0000.0,0005.83,0003.56,0003.18
2023-09-18 03:35:00,SystemResetWarning,0832.2,5.00,000.00,027.9,025.0,000.0,036.3,029.2,18.1,0000.0,0005.86,0003.57,0003.17
2023-09-18 03:36:00,SystemResetWarning,0832.1,5.02,000.00,027.8,025.3,000.0,036.3,029.3,18.0,0000.0,0005.62,0003.54,0003.17
2023-09-18 03:37:00,SystemResetWarning,0831.8,5.00,000.00,027.8,025.6,000.0,036.3,029.4,18.1,0000.0,0005.36,0003.49,0003.15
2023-09-18 03:38:00,SystemResetWarning,0832.2,5.00,000.00,027.9,025.9,000.0,036.3,029.4,18.2,0000.0,0005.24,0003.47,0003.14
2023-09-18 03:39:00,SystemResetWarning,0832.0,5.00,000.00,027.9,026.1,000.0,036.3,029.5,18.0,0000.0,0005.23,0003.46,0003.14
2023-09-18 03:40:00,SystemResetWarning,0832.0,5.00,000.00,027.9,026.3,000.0,036.3,029.5,18.0,0000.0,0005.09,0003.44,0003.14
2023-09-18 03:41:00,SystemResetWarning,0831.8,5.00,000.00,027.9,026.4,000.0,036.3,029.6,18.0,0000.0,0005.28,0003.46,0003.15
2023-09-18 03:42:00,SystemResetWarning,0831.8,5.00,000.00,027.9,026.6,000.0,036.3,029.6,17.8,0000.0,0005.37,0003.46,0003.16
2023-09-18 03:43:00,SystemResetWarning,0831.8,4.99,000.00,028.0,026.7,000.0,036.3,029.7,18.0,0000.0,0005.35,0003.46,0003.16
2023-09-18 03:44:00,SystemResetWarning,0831.8,4.99,000.00,028.0,026.8,000.0,036.3,029.7,17.7,0000.0,0005.45,0003.48,0003.16
2023-09-18 03:45:00,SystemResetWarning,0831.9,5.01,000.00,028.1,026.9,000.0,036.3,029.8,17.6,0000.0,0005.31,0003.48,0003.16
2023-09-18 03:46:00,SystemResetWarning,0831.8,5.01,000.00,028.1,026.9,000.0,036.4,029.8,17.5,0000.0,0005.30,0003.47,0003.15
2023-09-18 03:47:00,SystemResetWarning,0831.8,5.00,000.00,028.1,027.0,000.0,036.4,029.8,17.6,0000.0,0005.37,0003.48,0003.15
2023-09-18 03:48:00,SystemResetWarning,0831.8,5.00,000.00,028.2,027.1,000.0,036.4,029.9,17.5,0000.0,0005.43,0003.49,0003.14
2023-09-18 03:49:00,SystemResetWarning,0831.8,5.01,000.00,028.2,027.1,000.0,036.4,029.9,17.3,0000.0,0006.38,0003.51,0003.15
2023-09-18 03:50:00,SystemResetWarning,0831.8,5.00,000.00,028.2,027.2,000.0,036.4,029.9,17.5,0000.0,0006.72,0003.54,0003.15
2023-09-18 03:51:00,SystemResetWarning,0831.8,5.00,000.00,028.2,027.2,000.0,036.5,030.0,17.5,0000.0,0006.77,0003.54,0003.16
2023-09-18 03:52:00,SystemResetWarning,0831.8,4.99,000.00,028.3,026.7,000.0,036.5,029.8,17.3,0000.0,0006.70,0003.56,0003.16
2023-09-18 03:53:00,SystemResetWarning,0831.8,5.00,000.00,028.2,025.0,000.0,036.4,029.4,17.3,0000.0,0006.55,0003.57,0003.16
2023-09-18 03:54:00,SystemResetWarning,0832.3,5.01,000.00,028.1,024.5,000.0,036.4,029.3,17.5,0000.0,0006.56,0003.56,0003.15
2023-09-18 03:55:00,SystemResetWarning,0832.1,5.01,000.00,028.0,024.6,000.0,036.3,029.3,17.7,0000.0,0006.42,0003.51,0003.14
2023-09-18 03:56:00,SystemResetWarning,0832.1,4.99,000.00,027.9,024.9,000.0,036.3,029.2,17.9,0000.0,0006.33,0003.48,0003.14
2023-09-18 03:57:00,SystemResetWarning,0831.8,5.01,000.00,027.9,025.2,000.0,036.3,029.3,17.8,0000.0,0006.50,0003.48,0003.14
2023-09-18 03:58:00,SystemResetWarning,0832.2,5.00,000.00,027.9,025.5,000.0,036.3,029.4,17.9,0000.0,0006.51,0003.48,0003.14
2023-09-18 03:59:00,SystemResetWarning,0832.2,5.00,000.00,027.9,025.8,000.0,036.3,029.4,18.0,0000.0,0006.45,0003.47,0003.16
